Hourly Weather Roundup
Issued by NWS Central Illinois

Home | Current Version | Previous Version | Graphics & Text | Print | Product List | Glossary On
Versions: 1 2 3 4 5 6 7 8 9 10 11 12 13 14 15 16 17 18 19 20 21 22 23 24 25 26 27 28 29 30 31 32 33 34 35 36 37 38 39 40 41 42 43 44 45 46 47 48 49 50
000
NZUS43 KILX 221010
HWRILX

AREA WEATHER ROUNDUP
NATIONAL WEATHER SERVICE, LINCOLN IL
500 AM CDT FRI MAY 22 2015


CITY           SKY/WX    TMP DP  RH WIND       PRES   REMARKS
BLOOMINGTON    CLEAR     52  47  83 W10       30.13R
CHAMPAIGN      CLEAR     49  44  83 SW9       30.13R
DANVILLE       CLEAR     48  44  85 SW7       30.10R
DECATUR        CLEAR     53  45  74 SW10      30.15R
EFFINGHAM      CLEAR     48  42  77 S7        30.20S
FLORA          CLEAR     46  42  88 SW6       30.21R
GALESBURG      CLEAR     49  45  84 W7        30.14R
JACKSONVILLE   CLEAR     53  46  77 SW6       30.16R
LACON          CLEAR     53  45  76 SW3       30.12R
LAWRENCEVILLE  CLEAR     47  41  80 SW6       30.20R
LITCHFIELD     CLEAR     50  43  78 SW8       30.18S
$$


CITY           SKY/WX    TMP DP  RH WIND       PRES   REMARKS
LINCOLN        CLEAR     55  46  70 W3        30.13R
MACOMB         CLEAR     51  46  82 W10       30.17R
MATTOON        CLEAR     51  42  71 SW9       30.14S
MT CARMEL AP   CLEAR     50  43  76 SW7       30.20R
OLNEY-NOBLE AP CLEAR     46  43  87 CALM      30.21R
PARIS          CLEAR     49  43  78 SW10      30.15R
PEORIA         CLEAR     54  45  71 W5        30.13R
PONTIAC        CLEAR     51  47  86 W3        30.12R
RANTOUL        CLEAR     54  46  75 W7        30.12R
ROBINSON       CLEAR     49  43  78 SW8       30.19S
SPRINGFIELD    CLEAR     53  45  74 W10       30.15R
TAYLORVILLE    CLEAR     50  45  81 SW8       30.16R
$$

...REGIONAL REPORTS...


CITY           SKY/WX    TMP DP  RH WIND       PRES   REMARKS
CHICAGO O`HARE CLEAR     47  39  74 N9        30.10R
KANKAKEE       CLEAR     51  46  82 W6        30.10R
MOLINE         FAIR      46  39  76 W6        30.13R
MOUNT VERNON   CLEAR     43  37  81 SW5       30.23R
PITTSFIELD     CLEAR     56  46  67 W8        30.18R
QUINCY         CLEAR     53  44  71 W9        30.17R
ROCKFORD       CLEAR     49  37  63 E3        30.13R
$$


CITY           SKY/WX    TMP DP  RH WIND       PRES   REMARKS
BURLINGTON     CLEAR     52  45  77 NW7       30.14R
CEDAR RAPIDS   CLEAR     44  38  79 NW7       30.13R
DES MOINES     CLEAR     52  41  66 NW6       30.17S
KIRKSVILLE     CLEAR     51  43  74 W6        30.19S
OTTUMWA        CLEAR     50  43  77 W9        30.15S
ST LOUIS       CLEAR     53  43  68 W6        30.21R
$$


CITY           SKY/WX    TMP DP  RH WIND       PRES   REMARKS
TERRE HAUTE    CLEAR     50  42  74 SW8       30.16R
EVANSVILLE     CLEAR     46  43  89 W5        30.23R
INDIANAPOLIS   PTCLDY    45  40  82 SW8       30.13R
LAFAYETTE      CLEAR     46  42  86 SW6       30.11R
MADISON        CLEAR     41  35  79 CALM      30.13R
MILWAUKEE      CLEAR     43  32  65 N7        30.13R
$$





USA.gov is the U.S. government's official web portal to all federal, state and local government web resources and services.